When you browse on this site, cookies collect data to enhance your experience and personalize the content and advertising you see.
Visit our Privacy Policy to learn more. By continuing to use the site, you agree to this use of cookies and data.
  • In Sweden
  • List of Countries
  • For 7 days
  • Water Temperature
  • Satellite Maps
  • Weather Map
  • Weather Widgets
  • user-avatar
    Login

    Hourly Weather Mendoza

    Today, 17 July, Wednesday

    Time Temperature Precipitation Wind Pressure Humidity
    00:00 +11°C° 0 mm 1 mps 699 mmHg 61%
    01:00 +11°C° 0 mm 1 mps 698 mmHg 64%
    02:00 +11°C° 0 mm 1 mps 698 mmHg 65%
    03:00 +10°C° 0 mm 1 mps 697 mmHg 66%
    04:00 +10°C° 0 mm 1 mps 697 mmHg 66%
    05:00 +10°C° 0 mm 1 mps 697 mmHg 67%
    06:00 +10°C° 0 mm 1 mps 697 mmHg 68%
    07:00 +10°C° 0 mm 1 mps 698 mmHg 69%
    08:00 +12°C° 0 mm 1 mps 698 mmHg 63%
    09:00 +14°C° 0 mm 2 mps 698 mmHg 57%
    10:00 +16°C° 0 mm 2 mps 698 mmHg 52%
    11:00 +17°C° 0 mm 2 mps 698 mmHg 48%
    12:00 +18°C° 0 mm 2 mps 697 mmHg 44%
    13:00 +19°C° 0 mm 2 mps 697 mmHg 40%
    14:00 +19°C° 0 mm 2 mps 697 mmHg 40%
    15:00 +19°C° 0 mm 2 mps 696 mmHg 40%
    16:00 +20°C° 0 mm 1 mps 696 mmHg 39%
    17:00 +19°C° 0 mm 1 mps 696 mmHg 42%
    18:00 +16°C° 0 mm 1 mps 696 mmHg 44%
    19:00 +15°C° 0 mm 1 mps 696 mmHg 47%
    20:00 +14°C° 0 mm 2 mps 696 mmHg 47%
    21:00 +14°C° 0 mm 2 mps 697 mmHg 47%
    22:00 +14°C° 0 mm 2 mps 697 mmHg 47%
    23:00 +13°C° 0 mm 4 mps 697 mmHg 47%

    Tomorrow, 18 July, Thursday

    Time Temperature Precipitation Wind Pressure Humidity
    00:00 +13°C° 0 mm 5 mps 697 mmHg 48%
    01:00 +13°C° 0 mm 6 mps 698 mmHg 49%
    02:00 +11°C° 0 mm 6 mps 698 mmHg 53%
    03:00 +9°C° 0 mm 7 mps 699 mmHg 58%
    04:00 +8°C° 0 mm 7 mps 699 mmHg 62%
    05:00 +8°C° 0 mm 7 mps 700 mmHg 62%
    06:00 +8°C° 0 mm 6 mps 701 mmHg 61%
    07:00 +8°C° 0 mm 5 mps 701 mmHg 61%
    08:00 +8°C° 0 mm 4 mps 702 mmHg 56%
    09:00 +10°C° 0 mm 4 mps 702 mmHg 50%
    10:00 +10°C° 0 mm 3 mps 703 mmHg 45%
    11:00 +11°C° 0 mm 3 mps 703 mmHg 41%
    12:00 +11°C° 0 mm 4 mps 702 mmHg 38%
    13:00 +12°C° 0 mm 4 mps 702 mmHg 34%
    14:00 +11°C° 0 mm 4 mps 702 mmHg 34%
    15:00 +11°C° 0 mm 4 mps 701 mmHg 35%
    16:00 +10°C° 0 mm 4 mps 701 mmHg 35%
    17:00 +9°C° 0 mm 3 mps 701 mmHg 38%
    18:00 +8°C° 0 mm 2 mps 701 mmHg 41%
    19:00 +8°C° 0 mm 1 mps 701 mmHg 44%
    20:00 +8°C° 0 mm 1 mps 701 mmHg 45%
    21:00 +8°C° 0 mm 1 mps 701 mmHg 46%
    22:00 +7°C° 0 mm 1 mps 701 mmHg 47%
    23:00 +7°C° 0 mm 1 mps 700 mmHg 47%

    Day after tomorrow, 19 July, Friday

    Time Temperature Precipitation Wind Pressure Humidity
    00:00 +7°C° 0 mm 1 mps 699 mmHg 47%
    01:00 +7°C° 0 mm 1 mps 699 mmHg 48%
    02:00 +6°C° 0 mm 1 mps 698 mmHg 47%
    03:00 +6°C° 0 mm 1 mps 698 mmHg 46%
    04:00 +6°C° 0 mm 1 mps 697 mmHg 46%
    05:00 +6°C° 0 mm 1 mps 697 mmHg 46%
    06:00 +6°C° 0 mm 1 mps 697 mmHg 46%
    07:00 +6°C° 0 mm 1 mps 696 mmHg 46%
    08:00 +8°C° 0 mm 1 mps 696 mmHg 41%
    09:00 +9°C° 0 mm 2 mps 697 mmHg 37%
    10:00 +12°C° 0 mm 2 mps 697 mmHg 33%
    11:00 +13°C° 0 mm 2 mps 696 mmHg 31%
    12:00 +13°C° 0 mm 3 mps 695 mmHg 30%
    13:00 +16°C° 0 mm 3 mps 694 mmHg 28%
    14:00 +16°C° 0 mm 3 mps 694 mmHg 29%
    15:00 +16°C° 0 mm 2 mps 693 mmHg 30%
    16:00 +16°C° 0 mm 2 mps 693 mmHg 31%
    17:00 +14°C° 0 mm 2 mps 693 mmHg 33%
    18:00 +13°C° 0 mm 2 mps 693 mmHg 35%
    19:00 +12°C° 0 mm 2 mps 693 mmHg 36%
    20:00 +12°C° 0 mm 2 mps 693 mmHg 37%
    21:00 +12°C° 0 mm 2 mps 692 mmHg 38%
    22:00 +10°C° 0 mm 2 mps 692 mmHg 39%
    23:00 +10°C° 0 mm 3 mps 692 mmHg 39%

    20 July, Saturday

    Time Temperature Precipitation Wind Pressure Humidity
    00:00 +10°C° 0 mm 3 mps 692 mmHg 40%
    01:00 +10°C° 0 mm 3 mps 691 mmHg 40%
    02:00 +10°C° 0 mm 3 mps 691 mmHg 41%
    03:00 +9°C° 0 mm 3 mps 691 mmHg 43%
    04:00 +9°C° 0 mm 3 mps 691 mmHg 44%
    05:00 +9°C° 0 mm 3 mps 691 mmHg 48%
    06:00 +9°C° 0 mm 3 mps 692 mmHg 52%
    07:00 +9°C° 0 mm 3 mps 692 mmHg 56%
    08:00 +10°C° 0 mm 3 mps 692 mmHg 57%
    09:00 +10°C° 0 mm 3 mps 692 mmHg 58%
    10:00 +12°C° 0 mm 2 mps 692 mmHg 58%
    11:00 +13°C° 0 mm 2 mps 691 mmHg 58%
    12:00 +14°C° 0 mm 2 mps 690 mmHg 57%
    13:00 +14°C° 0 mm 2 mps 690 mmHg 56%
    14:00 +14°C° 0 mm 2 mps 690 mmHg 56%
    15:00 +14°C° 0 mm 2 mps 690 mmHg 55%
    16:00 +14°C° 0 mm 2 mps 690 mmHg 54%
    17:00 +13°C° 0 mm 2 mps 690 mmHg 58%
    18:00 +12°C° 0 mm 2 mps 690 mmHg 62%
    19:00 +10°C° 0 mm 2 mps 690 mmHg 65%
    20:00 +9°C° 0 mm 2 mps 691 mmHg 66%
    21:00 +9°C° 0 mm 2 mps 691 mmHg 68%
    22:00 +9°C° 0 mm 2 mps 691 mmHg 69%
    23:00 +8°C° 0 mm 2 mps 691 mmHg 71%

    21 July, Sunday

    Time Temperature Precipitation Wind Pressure Humidity
    00:00 +9°C° 0 mm 1 mps 691 mmHg 73%
    01:00 +9°C° 0 mm 1 mps 691 mmHg 76%
    02:00 +9°C° 0 mm 1 mps 691 mmHg 77%
    03:00 +8°C° 0 mm 1 mps 691 mmHg 78%
    04:00 +8°C° 0 mm 1 mps 691 mmHg 79%
    05:00 +8°C° 0 mm 1 mps 692 mmHg 79%
    06:00 +8°C° 0 mm 1 mps 692 mmHg 79%
    07:00 +7°C° 0 mm 2 mps 693 mmHg 79%
    08:00 +8°C° 0 mm 2 mps 693 mmHg 72%
    09:00 +9°C° 0 mm 3 mps 693 mmHg 66%
    10:00 +10°C° 0 mm 3 mps 693 mmHg 59%
    11:00 +8°C° 0 mm 4 mps 693 mmHg 65%
    12:00 +7°C° 0 mm 4 mps 692 mmHg 71%
    13:00 +6°C° 0 mm 5 mps 692 mmHg 77%
    14:00 +6°C° 0 mm 5 mps 692 mmHg 74%
    15:00 +6°C° 0 mm 5 mps 692 mmHg 71%
    16:00 +5°C° 0 mm 5 mps 692 mmHg 69%
    17:00 +5°C° 0 mm 5 mps 693 mmHg 71%
    18:00 +4°C° 0 mm 4 mps 694 mmHg 74%
    19:00 +4°C° 0 mm 4 mps 695 mmHg 77%
    20:00 +3°C° 0.1 mm 4 mps 695 mmHg 79%
    21:00 +3°C° 0.1 mm 4 mps 696 mmHg 80%
    22:00 +2°C° 0.1 mm 5 mps 696 mmHg 82%
    23:00 +3°C° 0.1 mm 4 mps 697 mmHg 82%

    22 July, Monday

    Time Temperature Precipitation Wind Pressure Humidity
    00:00 +1°C° 0.1 mm 4 mps 697 mmHg 83%
    01:00 +1°C° 0.1 mm 4 mps 697 mmHg 83%
    02:00 +1°C° 0.1 mm 4 mps 698 mmHg 86%
    03:00 +1°C° 0.1 mm 4 mps 698 mmHg 88%
    04:00 0°C° 0.1 mm 4 mps 698 mmHg 91%
    05:00 0°C° 0.1 mm 4 mps 699 mmHg 91%
    06:00 +2°C° 0.1 mm 3 mps 700 mmHg 91%
    07:00 +2°C° 0.1 mm 3 mps 700 mmHg 90%
    08:00 +2°C° 0.1 mm 3 mps 701 mmHg 85%
    09:00 +3°C° 0.1 mm 3 mps 701 mmHg 80%
    10:00 +3°C° 0.1 mm 3 mps 701 mmHg 75%
    11:00 +4°C° 0.1 mm 3 mps 701 mmHg 68%
    12:00 +5°C° 0.1 mm 3 mps 700 mmHg 61%
    13:00 +7°C° 0.1 mm 2 mps 700 mmHg 55%
    14:00 +7°C° 0.1 mm 2 mps 700 mmHg 53%
    15:00 +7°C° 0.1 mm 2 mps 700 mmHg 52%
    16:00 +8°C° 0.1 mm 1 mps 701 mmHg 50%
    17:00 +7°C° 0 mm 1 mps 701 mmHg 52%
    18:00 +7°C° 0 mm 1 mps 701 mmHg 55%
    19:00 +6°C° 0 mm 1 mps 702 mmHg 57%
    20:00 +6°C° 0 mm 1 mps 702 mmHg 59%
    21:00 +4°C° 0 mm 2 mps 702 mmHg 60%
    22:00 +4°C° 0 mm 2 mps 702 mmHg 61%
    23:00 +5°C° 0 mm 1 mps 702 mmHg 64%
    Show more